KMASWX Weather Reports


Display with metric or nautical units.
time (UTC)temp
F
wind
direction
speed
MPH
gust
MPH
rain 1hr
in
rain 24hr
in
rain mn
in
humidity
%
barometer
mb
20260504130757 50 35 0.0 2.0 0.00 0.00 0.00 62
20260504130253 50 26 0.0 3.0 0.00 0.00 0.00 63
20260504110606 53 30 2.0 4.0 0.00 0.00 0.00 57
20260504081833 59 23 0.0 4.0 0.00 0.00 0.00 44
20260504081329 58 2 3.0 4.0 0.00 0.00 0.00 45
20260504080825 58 348 3.0 3.0 0.00 0.00 0.00 46
20260504080321 58 243 0.0 0.0 0.00 0.00 0.00 47
20260504070217 60 135 0.0 2.0 0.00 0.00 0.00 42
20260504060121 61 282 0.0 0.0 0.00 0.00 0.00 39
20260504050530 64 29 5.0 1.0 0.00 0.00 0.00 35
20260504045522 65 23 4.0 3.0 0.00 0.00 0.00 35
20260504045016 65 336 0.0 1.0 0.00 0.00 0.00 34
20260504044512 67 336 0.0 2.0 0.00 0.00 0.00 32
20260504044008 67 85 0.0 3.0 0.00 0.00 0.00 32
20260504043502 68 16 1.0 2.0 0.00 0.00 0.00 31
20260504042958 68 23 1.0 2.0 0.00 0.00 0.00 30
20260504041948 69 26 2.0 4.0 0.00 0.00 0.00 29
20260504040940 69 25 4.0 5.0 0.00 0.00 0.00 29
20260504040436 69 9 3.0 5.0 0.00 0.00 0.00 29
20260504035426 69 15 4.0 5.0 0.00 0.00 0.00 28
20260504034922 70 340 4.0 5.0 0.00 0.00 0.00 28
20260504034415 70 298 3.0 6.0 0.00 0.00 0.00 27
20260504033912 71 302 4.0 6.0 0.00 0.00 0.00 27
20260504033408 72 350 4.0 5.0 0.00 0.00 0.00 26
20260504032904 73 23 3.0 5.0 0.00 0.00 0.00 25
20260504032357 73 33 0.0 3.0 0.00 0.00 0.00 25
20260504031853 73 22 3.0 4.0 0.00 0.00 0.00 25
20260504031346 74 358 0.0 4.0 0.00 0.00 0.00 25
20260504030842 74 8 4.0 3.0 0.00 0.00 0.00 25
20260504030338 74 25 0.0 3.0 0.00 0.00 0.00 25
20260504025834 75 30 1.0 4.0 0.00 0.00 0.00 24
20260504025331 77 198 0.0 0.0 0.00 0.00 0.00 24
20260504024324 79 198 0.0 1.0 0.00 0.00 0.00 20
20260504023821 80 180 0.0 0.0 0.00 0.00 0.00 20
20260504023317 80 180 0.0 1.0 0.00 0.00 0.00 19
20260504022814 80 209 1.0 4.0 0.00 0.00 0.00 19
20260504022307 80 202 2.0 4.0 0.00 0.00 0.00 19
20260504021803 80 239 2.0 4.0 0.00 0.00 0.00 17
20260504021259 80 243 1.0 5.0 0.00 0.00 0.00 19
20260504020752 79 247 3.0 6.0 0.00 0.00 0.00 17
20260504020248 80 243 5.0 8.0 0.00 0.00 0.00 18
20260504015238 80 220 2.0 9.0 0.00 0.00 0.00 18
20260504014734 81 223 5.0 10.0 0.00 0.00 0.00 18
20260504014231 80 234 5.0 9.0 0.00 0.00 0.00 18
20260504013727 80 203 7.0 15.0 0.00 0.00 0.00 18
20260504013224 81 219 11.0 16.0 0.00 0.00 0.00 17
20260504012717 81 157 5.0 15.0 0.00 0.00 0.00 18
20260504012214 81 236 6.0 16.0 0.00 0.00 0.00 18
20260504011711 81 219 7.0 20.0 0.00 0.00 0.00 17
20260504011207 81 243 8.0 15.0 0.00 0.00 0.00 16
20260504010703 82 205 8.0 14.0 0.00 0.00 0.00 16
20260504010159 82 188 6.0 18.0 0.00 0.00 0.00 17
20260504005655 81 248 13.0 20.0 0.00 0.00 0.00 15
20260504005150 82 267 9.0 18.0 0.00 0.00 0.00 16
20260504004139 82 271 8.0 15.0 0.00 0.00 0.00 15
20260504003632 82 260 8.0 15.0 0.00 0.00 0.00 14
20260504003126 83 243 8.0 17.0 0.00 0.00 0.00 14
20260504002622 82 270 11.0 17.0 0.00 0.00 0.00 14
20260504001612 82 234 3.0 17.0 0.00 0.00 0.00 15
20260504001108 83 232 6.0 13.0 0.00 0.00 0.00 16
20260504000601 82 226 4.0 14.0 0.00 0.00 0.00 16
20260504000058 83 292 6.0 16.0 0.00 0.00 0.00 15
20260503235554 82 265 8.0 15.0 0.00 0.00 0.00 15
20260503235051 83 230 5.0 14.0 0.00 0.00 0.00 14
20260503234041 83 331 6.0 13.0 0.00 0.00 0.00 15
20260503233534 83 244 7.0 14.0 0.00 0.00 0.00 16
20260503232527 83 236 9.0 12.0 0.00 0.00 0.00 15
20260503231520 83 161 8.0 12.0 0.00 0.00 0.00 15
20260503231017 83 233 12.0 15.0 0.00 0.00 0.00 16
20260503230511 82 219 10.0 13.0 0.00 0.00 0.00 16
20260503230007 82 222 9.0 13.0 0.00 0.00 0.00 16
20260503225503 83 274 10.0 15.0 0.00 0.00 0.00 16
20260503225000 83 212 11.0 11.0 0.00 0.00 0.00 17
20260503224454 81 227 5.0 15.0 0.00 0.00 0.00 16
20260503223950 82 201 10.0 11.0 0.00 0.00 0.00 17
20260503223446 82 226 7.0 15.0 0.00 0.00 0.00 18
20260503222940 81 253 11.0 18.0 0.00 0.00 0.00 17
20260503222435 82 309 6.0 16.0 0.00 0.00 0.00 19
20260503221932 80 284 9.0 11.0 0.00 0.00 0.00 17
20260503221428 82 286 6.0 12.0 0.00 0.00 0.00 19
20260503220417 83 164 0.0 8.0 0.00 0.00 0.00 20
20260503215913 84 99 0.0 10.0 0.00 0.00 0.00 19
20260503215407 83 168 7.0 8.0 0.00 0.00 0.00 20
20260503214903 83 75 3.0 10.0 0.00 0.00 0.00 20
20260503214359 82 247 6.0 9.0 0.00 0.00 0.00 22
20260503213853 83 165 3.0 6.0 0.00 0.00 0.00 19
20260503213350 83 156 3.0 8.0 0.00 0.00 0.00 20
20260503212342 82 215 5.0 9.0 0.00 0.00 0.00 22
20260503211836 82 203 6.0 9.0 0.00 0.00 0.00 23
20260503211332 81 142 5.0 7.0 0.00 0.00 0.00 21
20260503210829 82 149 0.0 6.0 0.00 0.00 0.00 21
20260503210325 82 104 5.0 8.0 0.00 0.00 0.00 22
20260503205822 82 167 8.0 8.0 0.00 0.00 0.00 23
20260503205312 81 163 7.0 9.0 0.00 0.00 0.00 21
20260503204805 81 95 5.0 7.0 0.00 0.00 0.00 22
20260503204301 80 156 5.0 7.0 0.00 0.00 0.00 23
20260503203758 79 133 4.0 11.0 0.00 0.00 0.00 24
20260503203250 80 163 7.0 8.0 0.00 0.00 0.00 24
20260503202747 80 153 4.0 8.0 0.00 0.00 0.00 23
20260503202242 80 202 5.0 8.0 0.00 0.00 0.00 23
20260503201736 80 182 2.0 8.0 0.00 0.00 0.00 24
20260503201232 79 180 2.0 6.0 0.00 0.00 0.00 24
20260503200728 78 142 2.0 9.0 0.00 0.00 0.00 28
20260503195718 77 177 4.0 6.0 0.00 0.00 0.00 25
20260503194207 76 133 7.0 8.0 0.00 0.00 0.00 26
20260503193702 76 163 7.0 8.0 0.00 0.00 0.00 27
20260503193158 75 111 7.0 5.0 0.00 0.00 0.00 27
20260503192655 75 246 2.0 10.0 0.00 0.00 0.00 27
20260503192151 74 87 3.0 7.0 0.00 0.00 0.00 29
20260503191643 76 135 4.0 6.0 0.00 0.00 0.00 27
20260503191140 76 98 4.0 3.0 0.00 0.00 0.00 29
20260503190130 74 101 2.0 5.0 0.00 0.00 0.00 28
20260503185625 73 185 0.0 5.0 0.00 0.00 0.00 29
20260503185121 73 171 4.0 7.0 0.00 0.00 0.00 30
20260503184614 72 130 2.0 6.0 0.00 0.00 0.00 29
20260503184110 71 188 2.0 5.0 0.00 0.00 0.00 32
20260503183607 70 106 2.0 4.0 0.00 0.00 0.00 30
20260503183100 69 147 4.0 6.0 0.00 0.00 0.00 31
20260503182557 69 142 4.0 5.0 0.00 0.00 0.00 31
20260503181549 69 80 0.0 5.0 0.00 0.00 0.00 33
20260503181042 68 229 3.0 5.0 0.00 0.00 0.00 33
20260503180539 68 177 4.0 6.0 0.00 0.00 0.00 33
20260503180035 68 189 4.0 5.0 0.00 0.00 0.00 33
20260503175530 67 215 0.0 7.0 0.00 0.00 0.00 35
20260503175027 68 158 2.0 4.0 0.00 0.00 0.00 35
20260503174018 66 164 2.0 5.0 0.00 0.00 0.00 39
20260503173010 64 95 0.0 6.0 0.00 0.00 0.00 39
20260503172504 64 185 6.0 5.0 0.00 0.00 0.00 38
20260503171957 64 154 0.0 6.0 0.00 0.00 0.00 42
20260503171453 64 246 3.0 7.0 0.00 0.00 0.00 44
20260503170950 63 250 0.0 4.0 0.00 0.00 0.00 42
20260503170444 63 255 0.0 4.0 0.00 0.00 0.00 43
20260503150802 53 345 0.0 0.0 0.00 0.00 0.00 60
20260503150259 53 345 0.0 0.0 0.00 0.00 0.00 60
20260503140203 49 330 1.0 0.0 0.00 0.00 0.00 63